Algona, IA

8:26 AM CST on February 07, 2016 (GMT -0600)
Algona Municipal

Weather History for KAXA - March, 2014

Change the Weather History Date:

Monday, March 3, 2014

  Actual Average Record
Temperature  
Mean Temperature 2 °F -  
Max Temperature 12 °F 29 °F 46 °F (2011)
Min Temperature -7 °F 16 °F -7 °F (2014)
Degree Days  
Heating Degree Days 62    
Moisture  
Dew Point -6 °F    
Average Humidity 68    
Maximum Humidity 85    
Minimum Humidity 56    
Precipitation  
Precipitation 0.00 in - - ()
Sea Level Pressure  
Sea Level Pressure 30.37 in    
Wind  
Wind Speed 8 mph (SSE)    
Max Wind Speed 17 mph    
Max Gust Speed 18 mph    
Visibility 9 miles    
Events Snow    
Averages and records for this station are not official NWS values.
T = Trace of Precipitation, MM = Missing Value Source: NWS Daily Summary

Daily Weather History Graph

Daily Weather History Graph

Search for Another Location

Airport or City:

Trip Planner

Search our weather history database for the weather conditions in past years. The results will help you decide how hot, cold, wet, or windy it might be!

Date:

Astronomy

Mar. 03, 2014 Rise Set
Actual Time 6:49 AM CST 6:08 PM CST
Civil Twilight 6:21 AM CST 6:37 PM CST
Nautical Twilight 5:48 AM CST 7:10 PM CST
Astronomical Twilight 5:15 AM CST 7:43 PM CST
Moon 7:53 AM CST (3/3) 9:18 PM CST (3/3)
Length of Visible Light 12h 16m
Length of Day
11h 19m
Waxing Crescent, 8% of the Moon is Illuminated
Mar 3
Waxing Crescent
Mar 8
First Quarter
Mar 16
Full
Mar 23
Last Quarter
Mar 30
New

Hourly Weather History & Observations

Time (CST) Temp. Windchill Dew Point Humidity Pressure Visibility Wind Dir Wind Speed Gust Speed Precip Events Conditions
12:15 AM -5.8 °F -19.9 °F -14.8 °F 65% 30.51 in 10.0 mi NW 6.9 mph - N/A   Clear
12:35 AM -5.8 °F -18.4 °F -14.8 °F 65% 30.51 in 10.0 mi NW 5.8 mph - N/A   Clear
12:55 AM -5.8 °F -21.2 °F -14.8 °F 65% 30.52 in 10.0 mi WNW 8.1 mph - N/A   Clear
1:15 AM -7.6 °F -20.6 °F -16.6 °F 65% 30.52 in 10.0 mi WNW 5.8 mph - N/A   Clear
1:35 AM -7.6 °F -20.6 °F -16.6 °F 65% 30.52 in 10.0 mi NW 5.8 mph - N/A   Clear
1:55 AM -5.8 °F -21.2 °F -14.8 °F 65% 30.52 in 10.0 mi NW 8.1 mph - N/A   Clear
2:15 AM -5.8 °F -18.4 °F -14.8 °F 65% 30.52 in 10.0 mi North 5.8 mph 11.5 mph N/A   Clear
2:35 AM -7.6 °F -23.4 °F -16.6 °F 65% 30.51 in 10.0 mi NNW 8.1 mph - N/A   Clear
2:55 AM -7.6 °F -23.4 °F -16.6 °F 65% 30.51 in 10.0 mi NNW 8.1 mph - N/A   Clear
3:15 AM -7.6 °F -25.7 °F -16.6 °F 65% 30.50 in 10.0 mi NNW 10.4 mph - N/A   Clear
3:35 AM -7.6 °F -18.8 °F -14.8 °F 71% 30.49 in 10.0 mi North 4.6 mph - N/A   Scattered Clouds
3:55 AM -4.0 °F -16.3 °F -13.0 °F 65% 30.49 in 10.0 mi North 5.8 mph - N/A   Overcast
4:15 AM -4.0 °F -17.8 °F -13.0 °F 65% 30.49 in 10.0 mi North 6.9 mph - N/A   Mostly Cloudy
4:35 AM -5.8 °F -19.9 °F -13.0 °F 71% 30.48 in 10.0 mi North 6.9 mph - N/A   Scattered Clouds
4:55 AM -5.8 °F -19.9 °F -13.0 °F 71% 30.47 in 10.0 mi NNE 6.9 mph - N/A   Overcast
5:15 AM -4.0 °F -17.8 °F -13.0 °F 65% 30.47 in 10.0 mi NNE 6.9 mph - N/A   Overcast
5:35 AM -4.0 °F -16.3 °F -13.0 °F 65% 30.47 in 10.0 mi NNE 5.8 mph - N/A   Overcast
5:55 AM -5.8 °F -18.4 °F -13.0 °F 71% 30.46 in 10.0 mi NNE 5.8 mph - N/A   Scattered Clouds
6:15 AM -5.8 °F -14.5 °F -13.0 °F 71% 30.46 in 10.0 mi NE 3.5 mph - N/A   Mostly Cloudy
6:35 AM -5.8 °F - -13.0 °F 71% 30.46 in 10.0 mi Calm Calm - N/A   Overcast
6:55 AM -4.0 °F - -13.0 °F 65% 30.45 in 10.0 mi Calm Calm - N/A   Overcast
7:15 AM -4.0 °F - -11.2 °F 71% 30.46 in 10.0 mi Calm Calm - N/A   Mostly Cloudy
7:35 AM -4.0 °F - -11.2 °F 71% 30.46 in 10.0 mi Calm Calm - N/A   Mostly Cloudy
7:55 AM -2.2 °F - -11.2 °F 66% 30.46 in 10.0 mi Calm Calm - N/A   Overcast
8:15 AM -2.2 °F - -11.2 °F 66% 30.47 in 10.0 mi Calm Calm - N/A   Overcast
8:35 AM -2.2 °F - -11.2 °F 66% 30.46 in 10.0 mi Calm Calm - N/A   Overcast
8:55 AM -0.4 °F -8.3 °F -11.2 °F 60% 30.48 in 10.0 mi SSE 3.5 mph - N/A   Overcast
9:15 AM -0.4 °F -13.4 °F -9.4 °F 66% 30.48 in 10.0 mi South 6.9 mph - N/A   Overcast
9:35 AM -0.4 °F -14.7 °F -11.2 °F 60% 30.47 in 10.0 mi South 8.1 mph - N/A   Overcast
9:55 AM 1.4 °F -12.5 °F -11.2 °F 56% 30.46 in 10.0 mi South 8.1 mph - N/A   Overcast
10:15 AM 1.4 °F -15.3 °F -9.4 °F 61% 30.45 in 10.0 mi South 11.5 mph - N/A   Overcast
10:35 AM 1.4 °F -15.3 °F -9.4 °F 61% 30.45 in 10.0 mi South 11.5 mph - N/A   Overcast
10:55 AM 1.4 °F -14.5 °F -9.4 °F 61% 30.45 in 10.0 mi South 10.4 mph - N/A   Overcast
11:15 AM 3.2 °F -11.3 °F -7.6 °F 61% 30.45 in 10.0 mi South 9.2 mph - N/A   Overcast
11:35 AM 3.2 °F -12.2 °F -5.8 °F 66% 30.44 in 10.0 mi South 10.4 mph - N/A   Overcast
11:55 AM 3.2 °F -13.9 °F -5.8 °F 66% 30.43 in 10.0 mi South 12.7 mph - N/A   Overcast
12:15 PM 5.0 °F -13.0 °F -5.8 °F 61% 30.42 in 10.0 mi South 15.0 mph - N/A   Overcast
12:35 PM 5.0 °F -11.6 °F -5.8 °F 61% 30.41 in 10.0 mi South 12.7 mph - N/A   Mostly Cloudy
12:55 PM 5.0 °F -12.3 °F -5.8 °F 61% 30.39 in 10.0 mi South 13.8 mph - N/A   Mostly Cloudy
1:15 PM 5.0 °F -10.8 °F -4.0 °F 66% 30.37 in 10.0 mi South 11.5 mph - N/A   Mostly Cloudy
1:35 PM 6.8 °F -10.0 °F -4.0 °F 61% 30.37 in 10.0 mi South 13.8 mph - N/A   Overcast
1:55 PM 6.8 °F -9.3 °F -2.2 °F 67% 30.37 in 10.0 mi South 12.7 mph - N/A   Mostly Cloudy
2:15 PM 6.8 °F -9.3 °F -2.2 °F 67% 30.35 in 10.0 mi South 12.7 mph - N/A   Partly Cloudy
2:35 PM 6.8 °F -10.0 °F -2.2 °F 67% 30.33 in 10.0 mi South 13.8 mph - N/A   Clear
2:55 PM 8.6 °F -7.7 °F -2.2 °F 62% 30.32 in 10.0 mi South 13.8 mph - N/A   Clear
3:15 PM 8.6 °F -6.3 °F -4.0 °F 57% 30.32 in 10.0 mi SSE 11.5 mph - N/A   Clear
3:35 PM 8.6 °F -6.3 °F -2.2 °F 62% 30.31 in 10.0 mi South 11.5 mph - N/A   Mostly Cloudy
3:55 PM 8.6 °F -7.0 °F -2.2 °F 62% 30.30 in 10.0 mi SSE 12.7 mph - N/A   Overcast
4:15 PM 8.6 °F -5.5 °F -2.2 °F 62% 30.29 in 10.0 mi SE 10.4 mph 17.3 mph N/A   Mostly Cloudy
4:35 PM 8.6 °F -8.3 °F -2.2 °F 62% 30.27 in 10.0 mi SSE 15.0 mph - N/A   Partly Cloudy
4:55 PM 8.6 °F -7.0 °F -2.2 °F 62% 30.27 in 10.0 mi SSE 12.7 mph - N/A   Partly Cloudy
5:15 PM 8.6 °F -6.3 °F -2.2 °F 62% 30.26 in 10.0 mi SSE 11.5 mph 18.4 mph N/A   Scattered Clouds
5:35 PM 8.6 °F -6.3 °F -0.4 °F 67% 30.25 in 10.0 mi SE 11.5 mph - N/A   Partly Cloudy
5:55 PM 8.6 °F -4.7 °F -0.4 °F 67% 30.24 in 10.0 mi SE 9.2 mph - N/A   Partly Cloudy
6:15 PM 8.6 °F -4.7 °F -0.4 °F 67% 30.25 in 10.0 mi SE 9.2 mph - N/A   Mostly Cloudy
6:35 PM 8.6 °F -6.3 °F -0.4 °F 67% 30.24 in 10.0 mi SE 11.5 mph - N/A   Overcast
6:55 PM 8.6 °F -8.3 °F -0.4 °F 67% 30.24 in 10.0 mi SE 15.0 mph - N/A   Overcast
7:15 PM 8.6 °F -7.7 °F -0.4 °F 67% 30.24 in 10.0 mi SE 13.8 mph - N/A   Overcast
7:35 PM 8.6 °F -8.3 °F 1.4 °F 73% 30.23 in 3.0 mi SSE 15.0 mph - N/A Snow Light Snow
7:55 PM 8.6 °F -7.0 °F 3.2 °F 79% 30.24 in 1.8 mi SSE 12.7 mph - N/A Snow Light Snow
8:15 PM 8.6 °F -5.5 °F 5.0 °F 85% 30.23 in 0.8 mi SE 10.4 mph - N/A Snow Light Snow
8:35 PM 8.6 °F -7.0 °F 5.0 °F 85% 30.22 in 2.0 mi SE 12.7 mph - N/A Snow Light Snow
8:55 PM 8.6 °F -8.9 °F 5.0 °F 85% 30.21 in 3.0 mi SSE 16.1 mph - N/A Snow Light Snow
9:15 PM 8.6 °F -9.5 °F 5.0 °F 85% 30.20 in 5.0 mi SSE 17.3 mph - N/A   Haze
9:35 PM 8.6 °F -8.3 °F 5.0 °F 85% 30.20 in 1.8 mi SSE 15.0 mph - N/A   Haze
9:55 PM 10.4 °F -7.2 °F 5.0 °F 79% 30.19 in 10.0 mi SSE 17.3 mph - N/A   Overcast
10:15 PM 10.4 °F -7.2 °F 5.0 °F 79% 30.18 in 10.0 mi SSE 17.3 mph - N/A   Overcast
10:35 PM 10.4 °F -6.0 °F 5.0 °F 79% 30.18 in 10.0 mi SSE 15.0 mph - N/A   Mostly Cloudy
10:55 PM 10.4 °F -5.4 °F 5.0 °F 79% 30.17 in 10.0 mi SSE 13.8 mph - N/A   Mostly Cloudy
11:15 PM 10.4 °F -4.8 °F 6.8 °F 85% 30.17 in 10.0 mi SSE 12.7 mph - N/A   Overcast
11:35 PM 12.2 °F -1.8 °F 5.0 °F 73% 30.17 in 10.0 mi South 11.5 mph - N/A   Overcast
11:55 PM 10.4 °F -4.8 °F 5.0 °F 79% 30.17 in 10.0 mi South 12.7 mph - N/A   Partly Cloudy